| time (UTC) | temp F | wind direction | speed MPH | gust MPH | rain 1hr in | rain 24hr in | rain mn in | humidity % | barometer mb |
| 20260508131544 | 51 | 0 | 0.0 | 0.0 | 0.00 | 0.51 | 0.00 | 84 | 1002.4 |
| 20260508130058 | 51 | 0 | 0.0 | 0.0 | 0.00 | 0.51 | 0.00 | 83 | 1002.1 |
| 20260508124549 | 51 | 0 | 0.0 | 0.0 | 0.00 | 0.51 | 0.00 | 83 | 1002.3 |
| 20260508123045 | 52 | 0 | 0.0 | 0.0 | 0.00 | 0.51 | 0.00 | 79 | 1002.5 |
| 20260508121541 | 53 | 0 | 0.0 | 0.0 | 0.00 | 0.51 | 0.00 | 81 | 1002.6 |
| 20260508120047 | 51 | 0 | 0.0 | 0.0 | 0.00 | 0.51 | 0.00 | 81 | 1002.5 |
| 20260508114545 | 51 | 0 | 0.0 | 0.0 | 0.00 | 0.51 | 0.00 | 83 | 1002.7 |
| 20260508113036 | 50 | 0 | 0.0 | 0.0 | 0.00 | 0.51 | 0.00 | 86 | 1002.7 |
| 20260508111536 | 49 | 0 | 0.0 | 0.0 | 0.00 | 0.51 | 0.00 | 88 | 1002.8 |
| 20260508110042 | 46 | 0 | 0.0 | 0.0 | 0.00 | 0.51 | 0.00 | 90 | 1002.8 |
| 20260508104542 | 46 | 0 | 0.0 | 0.0 | 0.00 | 0.51 | 0.00 | 91 | 1002.6 |
| 20260508103041 | 44 | 0 | 0.0 | 0.0 | 0.00 | 0.51 | 0.00 | 92 | 1002.6 |
| 20260508101546 | 44 | 0 | 0.0 | 0.0 | 0.00 | 0.51 | 0.00 | 91 | 1002.5 |
| 20260508100037 | 44 | 0 | 0.0 | 0.0 | 0.00 | 0.51 | 0.00 | 90 | 1002.2 |
| 20260508094544 | 44 | 0 | 0.0 | 0.0 | 0.00 | 0.51 | 0.00 | 91 | 1002.2 |
| 20260508093037 | 44 | 0 | 0.0 | 0.0 | 0.00 | 0.51 | 0.00 | 92 | 1002.1 |
| 20260508091554 | 43 | 0 | 0.0 | 0.0 | 0.00 | 0.51 | 0.00 | 92 | 1001.8 |
| 20260508090053 | 43 | 0 | 0.0 | 0.0 | 0.00 | 0.51 | 0.00 | 91 | 1001.9 |
| 20260508084537 | 44 | 0 | 0.0 | 0.0 | 0.00 | 0.64 | 0.00 | 91 | 1001.8 |
| 20260508083036 | 44 | 0 | 0.0 | 0.0 | 0.00 | 0.64 | 0.00 | 90 | 1001.8 |
| 20260508081544 | 44 | 0 | 0.0 | 0.0 | 0.00 | 0.64 | 0.00 | 91 | 1001.6 |
| 20260508080043 | 44 | 0 | 0.0 | 0.0 | 0.00 | 0.64 | 0.00 | 91 | 1001.5 |
| 20260508074537 | 44 | 0 | 0.0 | 0.0 | 0.00 | 0.76 | 0.00 | 92 | 1001.4 |
| 20260508073043 | 44 | 0 | 0.0 | 0.0 | 0.00 | 0.76 | 0.00 | 92 | 1001.6 |
| 20260508071555 | 43 | 0 | 0.0 | 0.0 | 0.00 | 0.76 | 0.00 | 93 | 1001.8 |
| 20260508070053 | 43 | 0 | 0.0 | 0.0 | 0.00 | 0.76 | 0.00 | 93 | 1001.9 |
| 20260508064537 | 43 | 0 | 0.0 | 0.0 | 0.00 | 0.81 | 0.00 | 93 | 1001.9 |
| 20260508063036 | 43 | 0 | 0.0 | 0.0 | 0.00 | 0.81 | 0.00 | 93 | 1001.9 |
| 20260508061546 | 43 | 0 | 0.0 | 0.0 | 0.00 | 0.81 | 0.00 | 93 | 1001.7 |
| 20260508060044 | 43 | 0 | 0.0 | 0.0 | 0.00 | 0.81 | 0.00 | 93 | 1001.9 |
| 20260508054542 | 43 | 0 | 0.0 | 0.0 | 0.00 | 0.81 | 0.00 | 93 | 1001.9 |
| 20260508053035 | 44 | 0 | 0.0 | 0.0 | 0.00 | 0.81 | 0.00 | 92 | 1002.1 |
| 20260508051540 | 44 | 0 | 0.0 | 0.0 | 0.00 | 0.81 | 0.00 | 91 | 1002.3 |
| 20260508050043 | 45 | 0 | 0.0 | 0.0 | 0.00 | 0.81 | 0.00 | 90 | 1002.3 |
| 20260508044540 | 45 | 0 | 0.0 | 0.0 | 0.00 | 0.81 | 0.00 | 90 | 1002.2 |
| 20260508043036 | 46 | 0 | 0.0 | 0.0 | 0.00 | 0.81 | 0.00 | 90 | 1002.4 |
| 20260508041546 | 46 | 0 | 0.0 | 0.0 | 0.00 | 0.81 | 0.00 | 91 | 1002.7 |
| 20260508040045 | 46 | 0 | 0.0 | 0.0 | 0.00 | 0.81 | 0.00 | 91 | 1002.8 |
| 20260508034540 | 47 | 0 | 0.0 | 0.0 | 0.00 | 0.81 | 0.00 | 90 | 1002.9 |
| 20260508033053 | 48 | 0 | 0.0 | 0.0 | 0.00 | 0.81 | 0.00 | 90 | 1002.6 |
| 20260508031543 | 48 | 0 | 0.0 | 0.0 | 0.00 | 0.81 | 0.00 | 89 | 1002.4 |
| 20260508030036 | 49 | 0 | 0.0 | 0.0 | 0.00 | 0.81 | 0.00 | 90 | 1002.8 |
| 20260508024541 | 49 | 0 | 0.0 | 0.0 | 0.00 | 0.81 | 0.81 | 91 | 1002.8 |
| 20260508023041 | 49 | 0 | 0.0 | 0.0 | 0.00 | 0.81 | 0.81 | 92 | 1002.8 |
| 20260508021537 | 49 | 0 | 0.0 | 0.0 | 0.00 | 0.81 | 0.81 | 94 | 1002.9 |
| 20260508020045 | 48 | 0 | 0.0 | 0.0 | 0.00 | 0.81 | 0.81 | 95 | 1003.2 |
| 20260508014536 | 48 | 0 | 0.0 | 0.0 | 0.00 | 0.81 | 0.81 | 95 | 1003.2 |
| 20260508013042 | 49 | 0 | 0.0 | 0.0 | 0.00 | 0.81 | 0.81 | 95 | 1003.1 |
| 20260508011543 | 49 | 0 | 0.0 | 0.0 | 0.00 | 0.81 | 0.81 | 95 | 1003.1 |
| 20260508010037 | 49 | 0 | 0.0 | 0.0 | 0.00 | 0.81 | 0.81 | 95 | 1002.9 |
| 20260508004537 | 50 | 0 | 0.0 | 0.0 | 0.00 | 0.81 | 0.81 | 95 | 1002.6 |
| 20260508003036 | 50 | 0 | 0.0 | 0.0 | 0.00 | 0.81 | 0.81 | 95 | 1002.5 |
| 20260508001550 | 50 | 0 | 0.0 | 0.0 | 0.00 | 0.81 | 0.81 | 94 | 1002.3 |
| 20260508000041 | 51 | 0 | 0.0 | 0.0 | 0.00 | 0.81 | 0.81 | 94 | 1001.9 |
| 20260507234536 | 52 | 0 | 0.0 | 0.0 | 0.00 | 0.81 | 0.81 | 93 | 1001.7 |
| 20260507233036 | 52 | 0 | 0.0 | 0.0 | 0.00 | 0.81 | 0.81 | 91 | 1001.9 |
| 20260507231543 | 54 | 0 | 0.0 | 0.0 | 0.00 | 0.81 | 0.81 | 89 | 1001.9 |
| 20260507230046 | 55 | 0 | 0.0 | 0.0 | 0.00 | 0.81 | 0.81 | 86 | 1001.7 |
| 20260507224538 | 55 | 0 | 0.0 | 0.0 | 0.00 | 0.81 | 0.81 | 84 | 1001.8 |
| 20260507223036 | 56 | 0 | 0.0 | 0.0 | 0.00 | 0.81 | 0.81 | 84 | 1001.6 |
| 20260507221536 | 57 | 0 | 0.0 | 0.0 | 0.00 | 0.81 | 0.81 | 87 | 1001.7 |
| 20260507220036 | 56 | 0 | 0.0 | 0.0 | 0.00 | 0.81 | 0.81 | 93 | 1001.7 |
| 20260507214539 | 54 | 0 | 0.0 | 0.0 | 0.00 | 0.81 | 0.81 | 98 | 1001.8 |
| 20260507213053 | 53 | 0 | 0.0 | 0.0 | 0.00 | 0.81 | 0.81 | 97 | 1001.6 |
| 20260507211546 | 53 | 0 | 0.0 | 0.0 | 0.00 | 0.81 | 0.81 | 97 | 1001.5 |
| 20260507210040 | 53 | 0 | 0.0 | 0.0 | 0.00 | 0.81 | 0.81 | 97 | 1001.4 |
| 20260507204534 | 54 | 0 | 0.0 | 0.0 | 0.00 | 0.81 | 0.81 | 98 | 1001.4 |
| 20260507203042 | 53 | 0 | 0.0 | 0.0 | 0.00 | 0.81 | 0.81 | 98 | 1001.4 |
| 20260507201547 | 53 | 0 | 0.0 | 0.0 | 0.00 | 0.81 | 0.81 | 98 | 1001.4 |
| 20260507200042 | 53 | 0 | 0.0 | 0.0 | 0.00 | 0.81 | 0.81 | 98 | 1001.4 |
| 20260507194544 | 53 | 0 | 0.0 | 0.0 | 0.00 | 0.81 | 0.81 | 98 | 1001.2 |
| 20260507193044 | 53 | 0 | 0.0 | 0.0 | 0.00 | 0.81 | 0.81 | 98 | 1001.4 |
| 20260507191544 | 53 | 0 | 0.0 | 0.0 | 0.00 | 0.81 | 0.81 | 98 | 1001.5 |
| 20260507190042 | 52 | 0 | 0.0 | 0.0 | 0.00 | 0.81 | 0.81 | 98 | 1001.5 |
| 20260507184535 | 51 | 0 | 0.0 | 0.0 | 0.00 | 0.81 | 0.81 | 98 | 1001.7 |
| 20260507183045 | 51 | 0 | 0.0 | 0.0 | 0.00 | 0.81 | 0.81 | 98 | 1001.7 |
| 20260507181543 | 51 | 0 | 0.0 | 0.0 | 0.00 | 0.81 | 0.81 | 98 | 1002.0 |
| 20260507180050 | 50 | 0 | 0.0 | 0.0 | 0.02 | 0.81 | 0.81 | 98 | 1002.0 |
| 20260507174538 | 49 | 0 | 0.0 | 0.0 | 0.02 | 0.81 | 0.81 | 98 | 1002.1 |
| 20260507173048 | 48 | 0 | 0.0 | 0.0 | 0.05 | 0.81 | 0.81 | 98 | 1001.6 |
| 20260507171544 | 47 | 0 | 0.0 | 0.0 | 0.07 | 0.81 | 0.81 | 98 | 1001.3 |
| 20260507170051 | 47 | 0 | 0.0 | 0.0 | 0.06 | 0.79 | 0.79 | 97 | 1001.9 |
| 20260507164542 | 49 | 0 | 0.0 | 0.0 | 0.07 | 0.79 | 0.79 | 98 | 1001.8 |
| 20260507163044 | 48 | 0 | 0.0 | 0.0 | 0.07 | 0.76 | 0.76 | 98 | 1002.3 |
| 20260507161550 | 47 | 0 | 0.0 | 0.0 | 0.08 | 0.74 | 0.74 | 97 | 1002.5 |
| 20260507160037 | 47 | 0 | 0.0 | 0.0 | 0.11 | 0.73 | 0.73 | 97 | 1002.7 |
| 20260507154536 | 47 | 0 | 0.0 | 0.0 | 0.13 | 0.72 | 0.72 | 97 | 1002.7 |
| 20260507153040 | 47 | 0 | 0.0 | 0.0 | 0.21 | 0.69 | 0.69 | 97 | 1003.3 |
| 20260507151535 | 47 | 0 | 0.0 | 0.0 | 0.24 | 0.66 | 0.66 | 96 | 1003.5 |
| 20260507150036 | 48 | 0 | 0.0 | 0.0 | 0.29 | 0.62 | 0.62 | 97 | 1003.5 |
| 20260507144545 | 50 | 0 | 0.0 | 0.0 | 0.27 | 0.58 | 0.58 | 97 | 1004.0 |
| 20260507143057 | 50 | 0 | 0.0 | 0.0 | 0.16 | 0.47 | 0.47 | 97 | 1004.8 |
| 20260507141541 | 51 | 0 | 0.0 | 0.0 | 0.12 | 0.42 | 0.42 | 97 | 1003.7 |
| 20260507140040 | 51 | 0 | 0.0 | 0.0 | 0.03 | 0.33 | 0.33 | 97 | 1004.5 |
| 20260507134535 | 50 | 0 | 0.0 | 0.0 | 0.02 | 0.32 | 0.32 | 97 | 1004.3 |
| 20260507133044 | 50 | 0 | 0.0 | 0.0 | 0.01 | 0.31 | 0.31 | 97 | 1004.3 |